• Processing (Info)

  • MPEC 2012-M28 : COMET P/2003 O2 = 2012 M1 (LINEAR)

    The following Minor Planet Electronic Circular may be linked-to from your own Web pages, but must not otherwise be redistributed electronically.

    A form allowing access to any MPEC is at the bottom of this page.


    Read MPEC 2012-M27 Read MPEC 2012-M29


    M.P.E.C. 2012-M28                                Issued 2012 June 21, 19:04 UT
    
         The Minor Planet Electronic Circulars contain information on unusual
             minor planets and routine data on comets.  They are published
       on behalf of Commission 20 of the International Astronomical Union by the
              Minor Planet Center, Smithsonian Astrophysical Observatory,
                              Cambridge, MA 02138, U.S.A.
    
                 Prepared using the Tamkin Foundation Computer Network
    
                                  MPC@CFA.HARVARD.EDU
                URL https://www.minorplanetcenter.net/    ISSN 1523-6714
    
                          COMET P/2003 O2 = 2012 M1 (LINEAR)
    
    Observations:
        PK12M010 |C2012 06 18.43592 02 53 48.47 +23 13 16.2                cEM028H06
        PK12M010 |C2012 06 18.43928 02 53 49.22 +23 13 19.6                cEM028H06
        PK12M010 |C2012 06 18.44264 02 53 49.88 +23 13 23.8          19.3 TcEM028H06
        PK12M010 |C2012 06 20.43958 03 00 02.78 +23 52 21.2                cEM028H06
        PK12M010 |C2012 06 20.44407 03 00 03.58 +23 52 25.7          19.4 TcEM028H06
    
    Observer details:
    H06 RAS Observatory, Mayhill.  Observer H. Sato.  0.51-m f/6.8 astrograph
        + CCD + f/4.5 focal reducer.
    
    Orbital elements:
        P/2003 O2 = 2012 M1 (LINEAR)
    Epoch 2012 June 2.0 TT = JDT 2456080.5
    T 2012 June 10.75779 TT                                 MPC
    q   1.4989370            (2000.0)            P               Q
    n   0.11266871     Peri.   32.85481     +0.94854625     -0.30952468
    a   4.2455488      Node   344.74084     +0.20693040     +0.76551181
    e   0.6469392      Incl.   14.69021     +0.23966606     +0.56407990
    P   8.75
    From 438 observations 2003 July 30-2012 June 20, mean residual 0".63.
    
        P/2003 O2 = 2012 M1 (LINEAR)
    Epoch 2003 Aug. 29.0 TT = JDT 2452880.5
    T 2003 Sept. 5.80931 TT                                 MPC
    q   1.5054542            (2000.0)            P               Q
    n   0.11235853     Peri.   32.72085     +0.94941218     -0.30682990
    a   4.2533587      Node   344.71136     +0.20468589     +0.76612918
    e   0.6460552      Incl.   14.69126     +0.23816002     +0.56471363
    P   8.77
    From 438 observations 2003 July 30-2012 June 20, mean residual 0".63.
    
